Weather History for KSPD - February, 2013

Change the Weather History Date:

Tuesday, February 26, 2013

  Actual Average Record
Temperature  
Mean Temperature 29 °F -  
Max Temperature 46 °F 52 °F 69 °F (2011)
Min Temperature 12 °F 23 °F 1 °F (2002)
Degree Days  
Heating Degree Days 36 27  
Month to date heating degree days 782 777  
Since 1 July heating degree days 3712 3953  
Cooling Degree Days 0 0  
Month to date cooling degree days 0 0  
Year to date cooling degree days 0 0  
Moisture  
Dew Point 17 °F    
Average Humidity 58    
Maximum Humidity 92    
Minimum Humidity 24    
Precipitation  
Precipitation 0.00 in 0.01 in 0.13 in (2015)
Month to date precipitation 0.11 0.41  
Year to date precipitation 0.13 0.78  
Sea Level Pressure  
Sea Level Pressure 29.86 in    
Wind  
Wind Speed 11 mph (NNW)    
Max Wind Speed 26 mph    
Max Gust Speed 32 mph    
T = Trace of Precipitation, MM = Missing Value Source: NWS Daily Summary

Daily Weather History Graph

Daily Weather History Graph

Search for Another Location

Airport or City:

Trip Planner

Search our weather history database for the weather conditions in past years. The results will help you decide how hot, cold, wet, or windy it might be!

Date:

Astronomy

Feb. 26, 2013 Rise Set
Actual Time 6:25 AM MST 5:41 PM MST
Civil Twilight 5:59 AM MST 6:08 PM MST
Nautical Twilight 5:28 AM MST 6:38 PM MST
Astronomical Twilight 4:58 AM MST 7:08 PM MST
Moon 6:57 PM MST (2/26) 6:31 AM MST (2/26)
Length of Visible Light 12h 09m
Length of Day
11h 16m
Full, 99% of the Moon is Illuminated
Feb 26
Full
Mar 4
Last Quarter
Mar 11
New
Mar 19
First Quarter
Mar 27
Full

Hourly Weather History & Observations

Time (MST) Temp. Windchill Dew Point Humidity Pressure Visibility Wind Dir Wind Speed Gust Speed Precip Events Conditions
12:56 AM 16.0 °F 6.3 °F 12.9 °F 88% 29.89 in - NW 6.9 mph - N/A   Unknown
1:56 AM 15.1 °F 3.3 °F 12.0 °F 88% 29.87 in - WNW 9.2 mph - N/A   Unknown
2:56 AM 12.9 °F 2.6 °F 10.0 °F 88% 29.85 in - NW 6.9 mph - N/A   Unknown
3:56 AM 12.0 °F - 8.1 °F 84% 29.82 in - Calm Calm - N/A   Unknown
4:56 AM 14.0 °F 1.2 °F 10.9 °F 88% 29.85 in - NW 10.4 mph - N/A   Unknown
5:56 AM 12.9 °F 3.8 °F 9.0 °F 84% 29.88 in - NW 5.8 mph - N/A   Unknown
6:56 AM 14.0 °F 8.2 °F 10.9 °F 88% 29.86 in - NNW 3.5 mph - N/A   Unknown
7:56 AM 27.0 °F 23.0 °F 23.0 °F 85% 29.84 in - WNW 3.5 mph - N/A   Unknown
8:56 AM 30.9 °F 27.5 °F 24.1 °F 76% 29.83 in - Variable 3.5 mph - N/A   Unknown
9:56 AM 36.0 °F 32.1 °F 19.0 °F 50% 29.81 in - South 4.6 mph - N/A   Unknown
10:56 AM 39.0 °F - 16.0 °F 39% 29.78 in - Calm Calm - N/A   Unknown
11:56 AM 41.0 °F 37.1 °F 14.0 °F 33% 29.77 in - Variable 5.8 mph - N/A   Unknown
12:56 PM 42.1 °F 39.2 °F 12.0 °F 29% 29.76 in - Variable 4.6 mph - N/A   Unknown
1:56 PM 45.0 °F 40.1 °F 10.9 °F 25% 29.75 in - NE 9.2 mph 17.3 mph N/A   Unknown
2:56 PM 42.1 °F 34.2 °F 9.0 °F 26% 29.78 in - NNE 16.1 mph 20.7 mph N/A   Unknown
3:56 PM 39.9 °F 32.1 °F 10.0 °F 29% 29.83 in - NNE 13.8 mph - N/A   Unknown
4:56 PM 35.1 °F 22.5 °F 25.0 °F 67% 29.86 in - North 26.5 mph 31.1 mph N/A   Unknown
5:56 PM 30.9 °F 19.8 °F 25.0 °F 79% 29.91 in - North 16.1 mph 24.2 mph N/A   Unknown
6:56 PM 30.9 °F 19.8 °F 28.0 °F 89% 29.92 in - NNW 16.1 mph - N/A   Unknown
7:56 PM 30.0 °F 18.3 °F 27.0 °F 88% 29.91 in - NNW 17.3 mph - N/A   Unknown
8:56 PM 30.0 °F 16.3 °F 27.0 °F 88% 29.92 in - North 24.2 mph 29.9 mph N/A   Unknown
9:56 PM 30.0 °F 17.5 °F 26.1 °F 85% 29.94 in - North 19.6 mph 27.6 mph N/A   Unknown
10:56 PM 27.0 °F 14.3 °F 21.9 °F 81% 29.96 in - North 17.3 mph - N/A   Unknown
11:56 PM 28.0 °F 13.9 °F 24.1 °F 85% 29.97 in - NNW 23.0 mph 29.9 mph N/A   Unknown